Index of /20260507/WXO-DD/model_gdps/15km/00/216
Name Last modified Size Description
Parent Directory -
20260507T00Z_MSC_GDPS_AbsoluteVorticity_IsbL-0200_LatLon0.15_PT216H.grib2 2026-05-07 04:48 1.5M
20260507T00Z_MSC_GDPS_AbsoluteVorticity_IsbL-0250_LatLon0.15_PT216H.grib2 2026-05-07 04:48 1.3M
20260507T00Z_MSC_GDPS_AbsoluteVorticity_IsbL-0500_LatLon0.15_PT216H.grib2 2026-05-07 04:48 1.2M
20260507T00Z_MSC_GDPS_AbsoluteVorticity_IsbL-0700_LatLon0.15_PT216H.grib2 2026-05-07 04:48 1.3M
20260507T00Z_MSC_GDPS_AbsoluteVorticity_IsbL-0850_LatLon0.15_PT216H.grib2 2026-05-07 04:48 1.6M
20260507T00Z_MSC_GDPS_AirTemp-Max_AGL-2m_LatLon0.15_PT216H.grib2 2026-05-07 04:48 741K
20260507T00Z_MSC_GDPS_AirTemp-Min_AGL-2m_LatLon0.15_PT216H.grib2 2026-05-07 04:48 792K
20260507T00Z_MSC_GDPS_AirTemp_AGL-120m_LatLon0.15_PT216H.grib2 2026-05-07 04:48 907K
20260507T00Z_MSC_GDPS_AirTemp_AGL-2m_LatLon0.15_PT216H.grib2 2026-05-07 04:48 1.0M
20260507T00Z_MSC_GDPS_AirTemp_AGL-40m_LatLon0.15_PT216H.grib2 2026-05-07 04:48 931K
20260507T00Z_MSC_GDPS_AirTemp_AGL-80m_LatLon0.15_PT216H.grib2 2026-05-07 04:48 917K
20260507T00Z_MSC_GDPS_AirTemp_IsbL-0001_LatLon0.15_PT216H.grib2 2026-05-07 04:48 673K
20260507T00Z_MSC_GDPS_AirTemp_IsbL-0005_LatLon0.15_PT216H.grib2 2026-05-07 04:48 702K
20260507T00Z_MSC_GDPS_AirTemp_IsbL-0010_LatLon0.15_PT216H.grib2 2026-05-07 04:48 697K
20260507T00Z_MSC_GDPS_AirTemp_IsbL-0020_LatLon0.15_PT216H.grib2 2026-05-07 04:48 720K
20260507T00Z_MSC_GDPS_AirTemp_IsbL-0030_LatLon0.15_PT216H.grib2 2026-05-07 04:48 836K
20260507T00Z_MSC_GDPS_AirTemp_IsbL-0050_LatLon0.15_PT216H.grib2 2026-05-07 04:48 880K
20260507T00Z_MSC_GDPS_AirTemp_IsbL-0100_LatLon0.15_PT216H.grib2 2026-05-07 04:48 962K
20260507T00Z_MSC_GDPS_AirTemp_IsbL-0150_LatLon0.15_PT216H.grib2 2026-05-07 04:48 1.0M
20260507T00Z_MSC_GDPS_AirTemp_IsbL-0175_LatLon0.15_PT216H.grib2 2026-05-07 04:48 961K
20260507T00Z_MSC_GDPS_AirTemp_IsbL-0200_LatLon0.15_PT216H.grib2 2026-05-07 04:48 1.0M
20260507T00Z_MSC_GDPS_AirTemp_IsbL-0225_LatLon0.15_PT216H.grib2 2026-05-07 04:48 1.0M
20260507T00Z_MSC_GDPS_AirTemp_IsbL-0250_LatLon0.15_PT216H.grib2 2026-05-07 04:48 1.0M
20260507T00Z_MSC_GDPS_AirTemp_IsbL-0275_LatLon0.15_PT216H.grib2 2026-05-07 04:48 1.0M
20260507T00Z_MSC_GDPS_AirTemp_IsbL-0300_LatLon0.15_PT216H.grib2 2026-05-07 04:48 1.0M
20260507T00Z_MSC_GDPS_AirTemp_IsbL-0350_LatLon0.15_PT216H.grib2 2026-05-07 04:48 929K
20260507T00Z_MSC_GDPS_AirTemp_IsbL-0400_LatLon0.15_PT216H.grib2 2026-05-07 04:48 944K
20260507T00Z_MSC_GDPS_AirTemp_IsbL-0450_LatLon0.15_PT216H.grib2 2026-05-07 04:48 969K
20260507T00Z_MSC_GDPS_AirTemp_IsbL-0500_LatLon0.15_PT216H.grib2 2026-05-07 04:48 1.0M
20260507T00Z_MSC_GDPS_AirTemp_IsbL-0550_LatLon0.15_PT216H.grib2 2026-05-07 04:48 1.0M
20260507T00Z_MSC_GDPS_AirTemp_IsbL-0600_LatLon0.15_PT216H.grib2 2026-05-07 04:48 891K
20260507T00Z_MSC_GDPS_AirTemp_IsbL-0650_LatLon0.15_PT216H.grib2 2026-05-07 04:48 922K
20260507T00Z_MSC_GDPS_AirTemp_IsbL-0700_LatLon0.15_PT216H.grib2 2026-05-07 04:48 955K
20260507T00Z_MSC_GDPS_AirTemp_IsbL-0750_LatLon0.15_PT216H.grib2 2026-05-07 04:48 1.0M
20260507T00Z_MSC_GDPS_AirTemp_IsbL-0800_LatLon0.15_PT216H.grib2 2026-05-07 04:48 1.1M
20260507T00Z_MSC_GDPS_AirTemp_IsbL-0850_LatLon0.15_PT216H.grib2 2026-05-07 04:48 1.1M
20260507T00Z_MSC_GDPS_AirTemp_IsbL-0875_LatLon0.15_PT216H.grib2 2026-05-07 04:48 1.2M
20260507T00Z_MSC_GDPS_AirTemp_IsbL-0900_LatLon0.15_PT216H.grib2 2026-05-07 04:48 1.2M
20260507T00Z_MSC_GDPS_AirTemp_IsbL-0925_LatLon0.15_PT216H.grib2 2026-05-07 04:48 1.1M
20260507T00Z_MSC_GDPS_AirTemp_IsbL-0950_LatLon0.15_PT216H.grib2 2026-05-07 04:48 1.1M
20260507T00Z_MSC_GDPS_AirTemp_IsbL-0970_LatLon0.15_PT216H.grib2 2026-05-07 04:48 1.2M
20260507T00Z_MSC_GDPS_AirTemp_IsbL-0985_LatLon0.15_PT216H.grib2 2026-05-07 04:48 1.1M
20260507T00Z_MSC_GDPS_AirTemp_IsbL-1000_LatLon0.15_PT216H.grib2 2026-05-07 04:48 1.1M
20260507T00Z_MSC_GDPS_AirTemp_IsbL-1015_LatLon0.15_PT216H.grib2 2026-05-07 04:48 1.1M
20260507T00Z_MSC_GDPS_Albedo_Sfc_LatLon0.15_PT216H.grib2 2026-05-07 04:48 242K
20260507T00Z_MSC_GDPS_CAPE_Sfc_LatLon0.15_PT216H.grib2 2026-05-07 04:48 4.1M
20260507T00Z_MSC_GDPS_CIN_Sfc_LatLon0.15_PT216H.grib2 2026-05-07 04:48 3.0M
20260507T00Z_MSC_GDPS_CloudWater_EAtm_LatLon0.15_PT216H.grib2 2026-05-07 04:48 544K
20260507T00Z_MSC_GDPS_ConvectivePrecip-Accum_Sfc_LatLon0.15_PT216H.grib2 2026-05-07 04:48 3.8M
20260507T00Z_MSC_GDPS_DewPointDepression_AGL-2m_LatLon0.15_PT216H.grib2 2026-05-07 04:48 766K
20260507T00Z_MSC_GDPS_DewPointDepression_IsbL-0010_LatLon0.15_PT216H.grib2 2026-05-07 04:48 91K
20260507T00Z_MSC_GDPS_DewPointDepression_IsbL-0020_LatLon0.15_PT216H.grib2 2026-05-07 04:48 86K
20260507T00Z_MSC_GDPS_DewPointDepression_IsbL-0030_LatLon0.15_PT216H.grib2 2026-05-07 04:48 101K
20260507T00Z_MSC_GDPS_DewPointDepression_IsbL-0050_LatLon0.15_PT216H.grib2 2026-05-07 04:48 371K
20260507T00Z_MSC_GDPS_DewPointDepression_IsbL-0100_LatLon0.15_PT216H.grib2 2026-05-07 04:48 393K
20260507T00Z_MSC_GDPS_DewPointDepression_IsbL-0150_LatLon0.15_PT216H.grib2 2026-05-07 04:48 504K
20260507T00Z_MSC_GDPS_DewPointDepression_IsbL-0175_LatLon0.15_PT216H.grib2 2026-05-07 04:48 606K
20260507T00Z_MSC_GDPS_DewPointDepression_IsbL-0200_LatLon0.15_PT216H.grib2 2026-05-07 04:48 698K
20260507T00Z_MSC_GDPS_DewPointDepression_IsbL-0225_LatLon0.15_PT216H.grib2 2026-05-07 04:48 778K
20260507T00Z_MSC_GDPS_DewPointDepression_IsbL-0250_LatLon0.15_PT216H.grib2 2026-05-07 04:48 848K
20260507T00Z_MSC_GDPS_DewPointDepression_IsbL-0275_LatLon0.15_PT216H.grib2 2026-05-07 04:48 871K
20260507T00Z_MSC_GDPS_DewPointDepression_IsbL-0300_LatLon0.15_PT216H.grib2 2026-05-07 04:48 922K
20260507T00Z_MSC_GDPS_DewPointDepression_IsbL-0350_LatLon0.15_PT216H.grib2 2026-05-07 04:48 952K
20260507T00Z_MSC_GDPS_DewPointDepression_IsbL-0400_LatLon0.15_PT216H.grib2 2026-05-07 04:48 1.0M
20260507T00Z_MSC_GDPS_DewPointDepression_IsbL-0450_LatLon0.15_PT216H.grib2 2026-05-07 04:48 1.0M
20260507T00Z_MSC_GDPS_DewPointDepression_IsbL-0500_LatLon0.15_PT216H.grib2 2026-05-07 04:48 1.0M
20260507T00Z_MSC_GDPS_DewPointDepression_IsbL-0550_LatLon0.15_PT216H.grib2 2026-05-07 04:48 1.0M
20260507T00Z_MSC_GDPS_DewPointDepression_IsbL-0600_LatLon0.15_PT216H.grib2 2026-05-07 04:48 1.1M
20260507T00Z_MSC_GDPS_DewPointDepression_IsbL-0650_LatLon0.15_PT216H.grib2 2026-05-07 04:48 1.1M
20260507T00Z_MSC_GDPS_DewPointDepression_IsbL-0700_LatLon0.15_PT216H.grib2 2026-05-07 04:48 1.1M
20260507T00Z_MSC_GDPS_DewPointDepression_IsbL-0750_LatLon0.15_PT216H.grib2 2026-05-07 04:48 1.1M
20260507T00Z_MSC_GDPS_DewPointDepression_IsbL-0800_LatLon0.15_PT216H.grib2 2026-05-07 04:48 1.2M
20260507T00Z_MSC_GDPS_DewPointDepression_IsbL-0850_LatLon0.15_PT216H.grib2 2026-05-07 04:48 1.1M
20260507T00Z_MSC_GDPS_DewPointDepression_IsbL-0875_LatLon0.15_PT216H.grib2 2026-05-07 04:48 1.1M
20260507T00Z_MSC_GDPS_DewPointDepression_IsbL-0900_LatLon0.15_PT216H.grib2 2026-05-07 04:48 1.0M
20260507T00Z_MSC_GDPS_DewPointDepression_IsbL-0925_LatLon0.15_PT216H.grib2 2026-05-07 04:48 1.0M
20260507T00Z_MSC_GDPS_DewPointDepression_IsbL-0950_LatLon0.15_PT216H.grib2 2026-05-07 04:48 1.0M
20260507T00Z_MSC_GDPS_DewPointDepression_IsbL-0970_LatLon0.15_PT216H.grib2 2026-05-07 04:48 1.0M
20260507T00Z_MSC_GDPS_DewPointDepression_IsbL-0985_LatLon0.15_PT216H.grib2 2026-05-07 04:48 1.0M
20260507T00Z_MSC_GDPS_DewPointDepression_IsbL-1000_LatLon0.15_PT216H.grib2 2026-05-07 04:48 971K
20260507T00Z_MSC_GDPS_DewPointDepression_IsbL-1015_LatLon0.15_PT216H.grib2 2026-05-07 04:48 909K
20260507T00Z_MSC_GDPS_DewPoint_AGL-2m_LatLon0.15_PT216H.grib2 2026-05-07 04:48 603K
20260507T00Z_MSC_GDPS_DownwardLongwaveRadiationFlux-Accum_Sfc_LatLon0.15_PT216H.grib2 2026-05-07 04:48 729K
20260507T00Z_MSC_GDPS_DownwardShortwaveRadiationFlux-Accum_NTAtm_LatLon0.15_PT216H.grib2 2026-05-07 04:48 208K
20260507T00Z_MSC_GDPS_DownwardShortwaveRadiationFlux-Accum_Sfc_LatLon0.15_PT216H.grib2 2026-05-07 04:48 895K
20260507T00Z_MSC_GDPS_FreezingRain-Accum12h_Sfc_LatLon0.15_PT216H.grib2 2026-05-07 04:48 125K
20260507T00Z_MSC_GDPS_FreezingRain-Accum24h_Sfc_LatLon0.15_PT216H.grib2 2026-05-07 04:48 170K
20260507T00Z_MSC_GDPS_FreezingRain-Accum6h_Sfc_LatLon0.15_PT216H.grib2 2026-05-07 04:48 68K
20260507T00Z_MSC_GDPS_FreezingRain-Accum_Sfc_LatLon0.15_PT216H.grib2 2026-05-07 04:48 475K
20260507T00Z_MSC_GDPS_GeopotentialHeight_IsbL-0001_LatLon0.15_PT216H.grib2 2026-05-07 04:48 451K
20260507T00Z_MSC_GDPS_GeopotentialHeight_IsbL-0005_LatLon0.15_PT216H.grib2 2026-05-07 04:48 356K
20260507T00Z_MSC_GDPS_GeopotentialHeight_IsbL-0010_LatLon0.15_PT216H.grib2 2026-05-07 04:48 483K
20260507T00Z_MSC_GDPS_GeopotentialHeight_IsbL-0020_LatLon0.15_PT216H.grib2 2026-05-07 04:48 461K
20260507T00Z_MSC_GDPS_GeopotentialHeight_IsbL-0030_LatLon0.15_PT216H.grib2 2026-05-07 04:48 408K
20260507T00Z_MSC_GDPS_GeopotentialHeight_IsbL-0050_LatLon0.15_PT216H.grib2 2026-05-07 04:48 563K
20260507T00Z_MSC_GDPS_GeopotentialHeight_IsbL-0100_LatLon0.15_PT216H.grib2 2026-05-07 04:48 609K
20260507T00Z_MSC_GDPS_GeopotentialHeight_IsbL-0150_LatLon0.15_PT216H.grib2 2026-05-07 04:48 634K
20260507T00Z_MSC_GDPS_GeopotentialHeight_IsbL-0175_LatLon0.15_PT216H.grib2 2026-05-07 04:48 640K
20260507T00Z_MSC_GDPS_GeopotentialHeight_IsbL-0200_LatLon0.15_PT216H.grib2 2026-05-07 04:48 645K
20260507T00Z_MSC_GDPS_GeopotentialHeight_IsbL-0225_LatLon0.15_PT216H.grib2 2026-05-07 04:48 643K
20260507T00Z_MSC_GDPS_GeopotentialHeight_IsbL-0250_LatLon0.15_PT216H.grib2 2026-05-07 04:48 650K
20260507T00Z_MSC_GDPS_GeopotentialHeight_IsbL-0275_LatLon0.15_PT216H.grib2 2026-05-07 04:48 646K
20260507T00Z_MSC_GDPS_GeopotentialHeight_IsbL-0300_LatLon0.15_PT216H.grib2 2026-05-07 04:48 637K
20260507T00Z_MSC_GDPS_GeopotentialHeight_IsbL-0350_LatLon0.15_PT216H.grib2 2026-05-07 04:48 632K
20260507T00Z_MSC_GDPS_GeopotentialHeight_IsbL-0400_LatLon0.15_PT216H.grib2 2026-05-07 04:48 624K
20260507T00Z_MSC_GDPS_GeopotentialHeight_IsbL-0450_LatLon0.15_PT216H.grib2 2026-05-07 04:48 612K
20260507T00Z_MSC_GDPS_GeopotentialHeight_IsbL-0500_LatLon0.15_PT216H.grib2 2026-05-07 04:48 533K
20260507T00Z_MSC_GDPS_GeopotentialHeight_IsbL-0550_LatLon0.15_PT216H.grib2 2026-05-07 04:48 528K
20260507T00Z_MSC_GDPS_GeopotentialHeight_IsbL-0600_LatLon0.15_PT216H.grib2 2026-05-07 04:48 693K
20260507T00Z_MSC_GDPS_GeopotentialHeight_IsbL-0650_LatLon0.15_PT216H.grib2 2026-05-07 04:48 690K
20260507T00Z_MSC_GDPS_GeopotentialHeight_IsbL-0700_LatLon0.15_PT216H.grib2 2026-05-07 04:48 686K
20260507T00Z_MSC_GDPS_GeopotentialHeight_IsbL-0750_LatLon0.15_PT216H.grib2 2026-05-07 04:48 695K
20260507T00Z_MSC_GDPS_GeopotentialHeight_IsbL-0800_LatLon0.15_PT216H.grib2 2026-05-07 04:48 705K
20260507T00Z_MSC_GDPS_GeopotentialHeight_IsbL-0850_LatLon0.15_PT216H.grib2 2026-05-07 04:48 716K
20260507T00Z_MSC_GDPS_GeopotentialHeight_IsbL-0875_LatLon0.15_PT216H.grib2 2026-05-07 04:48 720K
20260507T00Z_MSC_GDPS_GeopotentialHeight_IsbL-0900_LatLon0.15_PT216H.grib2 2026-05-07 04:48 725K
20260507T00Z_MSC_GDPS_GeopotentialHeight_IsbL-0925_LatLon0.15_PT216H.grib2 2026-05-07 04:48 732K
20260507T00Z_MSC_GDPS_GeopotentialHeight_IsbL-0950_LatLon0.15_PT216H.grib2 2026-05-07 04:48 741K
20260507T00Z_MSC_GDPS_GeopotentialHeight_IsbL-0970_LatLon0.15_PT216H.grib2 2026-05-07 04:48 751K
20260507T00Z_MSC_GDPS_GeopotentialHeight_IsbL-0985_LatLon0.15_PT216H.grib2 2026-05-07 04:48 766K
20260507T00Z_MSC_GDPS_GeopotentialHeight_IsbL-1000_LatLon0.15_PT216H.grib2 2026-05-07 04:48 787K
20260507T00Z_MSC_GDPS_GeopotentialHeight_IsbL-1015_LatLon0.15_PT216H.grib2 2026-05-07 04:48 810K
20260507T00Z_MSC_GDPS_IcePellets-Accum12h_Sfc_LatLon0.15_PT216H.grib2 2026-05-07 04:48 28K
20260507T00Z_MSC_GDPS_IcePellets-Accum24h_Sfc_LatLon0.15_PT216H.grib2 2026-05-07 04:48 39K
20260507T00Z_MSC_GDPS_IcePellets-Accum6h_Sfc_LatLon0.15_PT216H.grib2 2026-05-07 04:48 14K
20260507T00Z_MSC_GDPS_IcePellets-Accum_Sfc_LatLon0.15_PT216H.grib2 2026-05-07 04:48 238K
20260507T00Z_MSC_GDPS_KIndex_Sfc_LatLon0.15_PT216H.grib2 2026-05-07 04:48 6.5M
20260507T00Z_MSC_GDPS_LatentHeatNetFlux_Sfc_LatLon0.15_PT216H.grib2 2026-05-07 04:48 677K
20260507T00Z_MSC_GDPS_LiftedIndex-MU-VT_IsbL-0500_LatLon0.15_PT216H.grib2 2026-05-07 04:48 5.4M
20260507T00Z_MSC_GDPS_NetLongwaveRadiationFlux-Accum_Sfc_LatLon0.15_PT216H.grib2 2026-05-07 04:48 921K
20260507T00Z_MSC_GDPS_NetShortwaveRadiationFlux-Accum_Sfc_LatLon0.15_PT216H.grib2 2026-05-07 04:48 874K
20260507T00Z_MSC_GDPS_O3MixingRatio_Sfc_LatLon0.15_PT216H.grib2 2026-05-07 04:56 1.9M
20260507T00Z_MSC_GDPS_O3_EAtm_LatLon0.15_PT216H.grib2 2026-05-07 04:56 2.4M
20260507T00Z_MSC_GDPS_PlanetaryBoundaryLayerHeight_Sfc_LatLon0.15_PT216H.grib2 2026-05-07 04:48 2.5M
20260507T00Z_MSC_GDPS_Precip-Accum12h_Sfc_LatLon0.15_PT216H.grib2 2026-05-07 04:48 4.1M
20260507T00Z_MSC_GDPS_Precip-Accum24h_Sfc_LatLon0.15_PT216H.grib2 2026-05-07 04:48 4.3M
20260507T00Z_MSC_GDPS_Precip-Accum6h_Sfc_LatLon0.15_PT216H.grib2 2026-05-07 04:48 3.6M
20260507T00Z_MSC_GDPS_Precip-Accum_Sfc_LatLon0.15_PT216H.grib2 2026-05-07 04:48 5.1M
20260507T00Z_MSC_GDPS_PrecipRate_Sfc_LatLon0.15_PT216H.grib2 2026-05-07 04:48 3.2M
20260507T00Z_MSC_GDPS_PrecipType-Instant_Sfc_LatLon0.15_PT216H.grib2 2026-05-07 04:48 1.6M
20260507T00Z_MSC_GDPS_Pressure_MSL_LatLon0.15_PT216H.grib2 2026-05-07 04:48 722K
20260507T00Z_MSC_GDPS_Pressure_Sfc_LatLon0.15_PT216H.grib2 2026-05-07 04:48 1.1M
20260507T00Z_MSC_GDPS_RadiativeTemp_Sfc_LatLon0.15_PT216H.grib2 2026-05-07 04:48 656K
20260507T00Z_MSC_GDPS_Rain-Accum12h_Sfc_LatLon0.15_PT216H.grib2 2026-05-07 04:48 2.9M
20260507T00Z_MSC_GDPS_Rain-Accum24h_Sfc_LatLon0.15_PT216H.grib2 2026-05-07 04:48 3.1M
20260507T00Z_MSC_GDPS_Rain-Accum6h_Sfc_LatLon0.15_PT216H.grib2 2026-05-07 04:48 2.4M
20260507T00Z_MSC_GDPS_Rain-Accum_Sfc_LatLon0.15_PT216H.grib2 2026-05-07 04:48 4.1M
20260507T00Z_MSC_GDPS_RelativeHumidity_AGL-2m_LatLon0.15_PT216H.grib2 2026-05-07 04:48 1.0M
20260507T00Z_MSC_GDPS_RelativeHumidity_IsbL-0010_LatLon0.15_PT216H.grib2 2026-05-07 04:48 150K
20260507T00Z_MSC_GDPS_RelativeHumidity_IsbL-0020_LatLon0.15_PT216H.grib2 2026-05-07 04:48 118K
20260507T00Z_MSC_GDPS_RelativeHumidity_IsbL-0030_LatLon0.15_PT216H.grib2 2026-05-07 04:48 126K
20260507T00Z_MSC_GDPS_RelativeHumidity_IsbL-0050_LatLon0.15_PT216H.grib2 2026-05-07 04:48 255K
20260507T00Z_MSC_GDPS_RelativeHumidity_IsbL-0100_LatLon0.15_PT216H.grib2 2026-05-07 04:48 495K
20260507T00Z_MSC_GDPS_RelativeHumidity_IsbL-0150_LatLon0.15_PT216H.grib2 2026-05-07 04:48 679K
20260507T00Z_MSC_GDPS_RelativeHumidity_IsbL-0175_LatLon0.15_PT216H.grib2 2026-05-07 04:48 817K
20260507T00Z_MSC_GDPS_RelativeHumidity_IsbL-0200_LatLon0.15_PT216H.grib2 2026-05-07 04:48 729K
20260507T00Z_MSC_GDPS_RelativeHumidity_IsbL-0225_LatLon0.15_PT216H.grib2 2026-05-07 04:48 800K
20260507T00Z_MSC_GDPS_RelativeHumidity_IsbL-0250_LatLon0.15_PT216H.grib2 2026-05-07 04:48 868K
20260507T00Z_MSC_GDPS_RelativeHumidity_IsbL-0275_LatLon0.15_PT216H.grib2 2026-05-07 04:48 885K
20260507T00Z_MSC_GDPS_RelativeHumidity_IsbL-0300_LatLon0.15_PT216H.grib2 2026-05-07 04:48 928K
20260507T00Z_MSC_GDPS_RelativeHumidity_IsbL-0350_LatLon0.15_PT216H.grib2 2026-05-07 04:48 948K
20260507T00Z_MSC_GDPS_RelativeHumidity_IsbL-0400_LatLon0.15_PT216H.grib2 2026-05-07 04:48 971K
20260507T00Z_MSC_GDPS_RelativeHumidity_IsbL-0450_LatLon0.15_PT216H.grib2 2026-05-07 04:48 1.0M
20260507T00Z_MSC_GDPS_RelativeHumidity_IsbL-0500_LatLon0.15_PT216H.grib2 2026-05-07 04:48 1.0M
20260507T00Z_MSC_GDPS_RelativeHumidity_IsbL-0550_LatLon0.15_PT216H.grib2 2026-05-07 04:48 1.0M
20260507T00Z_MSC_GDPS_RelativeHumidity_IsbL-0600_LatLon0.15_PT216H.grib2 2026-05-07 04:48 1.0M
20260507T00Z_MSC_GDPS_RelativeHumidity_IsbL-0650_LatLon0.15_PT216H.grib2 2026-05-07 04:48 1.1M
20260507T00Z_MSC_GDPS_RelativeHumidity_IsbL-0700_LatLon0.15_PT216H.grib2 2026-05-07 04:48 1.1M
20260507T00Z_MSC_GDPS_RelativeHumidity_IsbL-0750_LatLon0.15_PT216H.grib2 2026-05-07 04:48 1.1M
20260507T00Z_MSC_GDPS_RelativeHumidity_IsbL-0800_LatLon0.15_PT216H.grib2 2026-05-07 04:48 1.3M
20260507T00Z_MSC_GDPS_RelativeHumidity_IsbL-0850_LatLon0.15_PT216H.grib2 2026-05-07 04:48 1.3M
20260507T00Z_MSC_GDPS_RelativeHumidity_IsbL-0875_LatLon0.15_PT216H.grib2 2026-05-07 04:48 1.3M
20260507T00Z_MSC_GDPS_RelativeHumidity_IsbL-0900_LatLon0.15_PT216H.grib2 2026-05-07 04:48 1.2M
20260507T00Z_MSC_GDPS_RelativeHumidity_IsbL-0925_LatLon0.15_PT216H.grib2 2026-05-07 04:48 1.2M
20260507T00Z_MSC_GDPS_RelativeHumidity_IsbL-0950_LatLon0.15_PT216H.grib2 2026-05-07 04:48 1.2M
20260507T00Z_MSC_GDPS_RelativeHumidity_IsbL-0970_LatLon0.15_PT216H.grib2 2026-05-07 04:48 1.2M
20260507T00Z_MSC_GDPS_RelativeHumidity_IsbL-0985_LatLon0.15_PT216H.grib2 2026-05-07 04:48 1.2M
20260507T00Z_MSC_GDPS_RelativeHumidity_IsbL-1000_LatLon0.15_PT216H.grib2 2026-05-07 04:48 1.1M
20260507T00Z_MSC_GDPS_RelativeHumidity_IsbL-1015_LatLon0.15_PT216H.grib2 2026-05-07 04:48 1.0M
20260507T00Z_MSC_GDPS_RelativeVorticity_IsbL-0200_LatLon0.15_PT216H.grib2 2026-05-07 04:48 1.5M
20260507T00Z_MSC_GDPS_RelativeVorticity_IsbL-0250_LatLon0.15_PT216H.grib2 2026-05-07 04:48 1.3M
20260507T00Z_MSC_GDPS_RelativeVorticity_IsbL-0500_LatLon0.15_PT216H.grib2 2026-05-07 04:48 1.2M
20260507T00Z_MSC_GDPS_RelativeVorticity_IsbL-0700_LatLon0.15_PT216H.grib2 2026-05-07 04:48 1.3M
20260507T00Z_MSC_GDPS_RelativeVorticity_IsbL-0850_LatLon0.15_PT216H.grib2 2026-05-07 04:48 1.6M
20260507T00Z_MSC_GDPS_Runoff-Accum_Sfc_LatLon0.15_PT216H.grib2 2026-05-07 04:48 138K
20260507T00Z_MSC_GDPS_SensibleHeatNetFlux_Sfc_LatLon0.15_PT216H.grib2 2026-05-07 04:48 446K
20260507T00Z_MSC_GDPS_ShowalterIndex_IsbL-0500_LatLon0.15_PT216H.grib2 2026-05-07 04:48 6.2M
20260507T00Z_MSC_GDPS_Snow-Accum12h_Sfc_LatLon0.15_PT216H.grib2 2026-05-07 04:48 1.5M
20260507T00Z_MSC_GDPS_Snow-Accum24h_Sfc_LatLon0.15_PT216H.grib2 2026-05-07 04:48 1.8M
20260507T00Z_MSC_GDPS_Snow-Accum6h_Sfc_LatLon0.15_PT216H.grib2 2026-05-07 04:48 1.6M
20260507T00Z_MSC_GDPS_Snow-Accum_Sfc_LatLon0.15_PT216H.grib2 2026-05-07 04:48 2.1M
20260507T00Z_MSC_GDPS_SnowDensity_Sfc_LatLon0.15_PT216H.grib2 2026-05-07 04:48 256K
20260507T00Z_MSC_GDPS_SnowDepth_Sfc_LatLon0.15_PT216H.grib2 2026-05-07 04:48 1.7M
20260507T00Z_MSC_GDPS_SoilTemp_DBS-0to10cm_LatLon0.15_PT216H.grib2 2026-05-07 04:48 513K
20260507T00Z_MSC_GDPS_SoilTemp_Sfc_LatLon0.15_PT216H.grib2 2026-05-07 04:48 565K
20260507T00Z_MSC_GDPS_SoilVolumetricIceContent_Sfc_LatLon0.15_PT216H.grib2 2026-05-07 04:48 167K
20260507T00Z_MSC_GDPS_SoilVolumetricWaterContent_DBS-0to10cm_LatLon0.15_PT216H.grib2 2026-05-07 04:48 607K
20260507T00Z_MSC_GDPS_SoilVolumetricWaterContent_DBS-0to1cm_LatLon0.15_PT216H.grib2 2026-05-07 04:48 647K
20260507T00Z_MSC_GDPS_SpecificHumidity_AGL-120m_LatLon0.15_PT216H.grib2 2026-05-07 04:48 1.1M
20260507T00Z_MSC_GDPS_SpecificHumidity_AGL-2m_LatLon0.15_PT216H.grib2 2026-05-07 04:48 1.2M
20260507T00Z_MSC_GDPS_SpecificHumidity_AGL-40m_LatLon0.15_PT216H.grib2 2026-05-07 04:48 1.1M
20260507T00Z_MSC_GDPS_SpecificHumidity_AGL-80m_LatLon0.15_PT216H.grib2 2026-05-07 04:48 1.1M
20260507T00Z_MSC_GDPS_SpecificHumidity_IsbL-0001_LatLon0.15_PT216H.grib2 2026-05-07 04:48 1.1M
20260507T00Z_MSC_GDPS_SpecificHumidity_IsbL-0005_LatLon0.15_PT216H.grib2 2026-05-07 04:48 1.0M
20260507T00Z_MSC_GDPS_SpecificHumidity_IsbL-0010_LatLon0.15_PT216H.grib2 2026-05-07 04:48 1.1M
20260507T00Z_MSC_GDPS_SpecificHumidity_IsbL-0020_LatLon0.15_PT216H.grib2 2026-05-07 04:48 1.1M
20260507T00Z_MSC_GDPS_SpecificHumidity_IsbL-0030_LatLon0.15_PT216H.grib2 2026-05-07 04:48 1.1M
20260507T00Z_MSC_GDPS_SpecificHumidity_IsbL-0050_LatLon0.15_PT216H.grib2 2026-05-07 04:48 1.4M
20260507T00Z_MSC_GDPS_SpecificHumidity_IsbL-0100_LatLon0.15_PT216H.grib2 2026-05-07 04:48 1.2M
20260507T00Z_MSC_GDPS_SpecificHumidity_IsbL-0150_LatLon0.15_PT216H.grib2 2026-05-07 04:48 1.2M
20260507T00Z_MSC_GDPS_SpecificHumidity_IsbL-0175_LatLon0.15_PT216H.grib2 2026-05-07 04:48 1.3M
20260507T00Z_MSC_GDPS_SpecificHumidity_IsbL-0200_LatLon0.15_PT216H.grib2 2026-05-07 04:48 1.3M
20260507T00Z_MSC_GDPS_SpecificHumidity_IsbL-0225_LatLon0.15_PT216H.grib2 2026-05-07 04:48 1.3M
20260507T00Z_MSC_GDPS_SpecificHumidity_IsbL-0250_LatLon0.15_PT216H.grib2 2026-05-07 04:48 1.2M
20260507T00Z_MSC_GDPS_SpecificHumidity_IsbL-0275_LatLon0.15_PT216H.grib2 2026-05-07 04:48 1.3M
20260507T00Z_MSC_GDPS_SpecificHumidity_IsbL-0300_LatLon0.15_PT216H.grib2 2026-05-07 04:48 1.2M
20260507T00Z_MSC_GDPS_SpecificHumidity_IsbL-0350_LatLon0.15_PT216H.grib2 2026-05-07 04:48 1.2M
20260507T00Z_MSC_GDPS_SpecificHumidity_IsbL-0400_LatLon0.15_PT216H.grib2 2026-05-07 04:48 1.5M
20260507T00Z_MSC_GDPS_SpecificHumidity_IsbL-0450_LatLon0.15_PT216H.grib2 2026-05-07 04:48 1.3M
20260507T00Z_MSC_GDPS_SpecificHumidity_IsbL-0500_LatLon0.15_PT216H.grib2 2026-05-07 04:48 1.5M
20260507T00Z_MSC_GDPS_SpecificHumidity_IsbL-0550_LatLon0.15_PT216H.grib2 2026-05-07 04:48 1.6M
20260507T00Z_MSC_GDPS_SpecificHumidity_IsbL-0600_LatLon0.15_PT216H.grib2 2026-05-07 04:48 1.8M
20260507T00Z_MSC_GDPS_SpecificHumidity_IsbL-0650_LatLon0.15_PT216H.grib2 2026-05-07 04:48 1.6M
20260507T00Z_MSC_GDPS_SpecificHumidity_IsbL-0700_LatLon0.15_PT216H.grib2 2026-05-07 04:48 1.7M
20260507T00Z_MSC_GDPS_SpecificHumidity_IsbL-0750_LatLon0.15_PT216H.grib2 2026-05-07 04:48 1.8M
20260507T00Z_MSC_GDPS_SpecificHumidity_IsbL-0800_LatLon0.15_PT216H.grib2 2026-05-07 04:48 1.9M
20260507T00Z_MSC_GDPS_SpecificHumidity_IsbL-0850_LatLon0.15_PT216H.grib2 2026-05-07 04:48 2.0M
20260507T00Z_MSC_GDPS_SpecificHumidity_IsbL-0875_LatLon0.15_PT216H.grib2 2026-05-07 04:48 2.0M
20260507T00Z_MSC_GDPS_SpecificHumidity_IsbL-0900_LatLon0.15_PT216H.grib2 2026-05-07 04:48 2.0M
20260507T00Z_MSC_GDPS_SpecificHumidity_IsbL-0925_LatLon0.15_PT216H.grib2 2026-05-07 04:48 1.6M
20260507T00Z_MSC_GDPS_SpecificHumidity_IsbL-0950_LatLon0.15_PT216H.grib2 2026-05-07 04:48 1.6M
20260507T00Z_MSC_GDPS_SpecificHumidity_IsbL-0970_LatLon0.15_PT216H.grib2 2026-05-07 04:48 1.6M
20260507T00Z_MSC_GDPS_SpecificHumidity_IsbL-0985_LatLon0.15_PT216H.grib2 2026-05-07 04:48 1.6M
20260507T00Z_MSC_GDPS_SpecificHumidity_IsbL-1000_LatLon0.15_PT216H.grib2 2026-05-07 04:48 1.5M
20260507T00Z_MSC_GDPS_SpecificHumidity_IsbL-1015_LatLon0.15_PT216H.grib2 2026-05-07 04:48 1.5M
20260507T00Z_MSC_GDPS_SpecificHumidity_Sfc_LatLon0.15_PT216H.grib2 2026-05-07 04:48 645K
20260507T00Z_MSC_GDPS_Thickness_IsbL-0850to0700_LatLon0.15_PT216H.grib2 2026-05-07 04:48 469K
20260507T00Z_MSC_GDPS_Thickness_IsbL-1000to0500_LatLon0.15_PT216H.grib2 2026-05-07 04:48 331K
20260507T00Z_MSC_GDPS_Thickness_IsbL-1000to0850_LatLon0.15_PT216H.grib2 2026-05-07 04:48 487K
20260507T00Z_MSC_GDPS_TotalCloudCover_Sfc_LatLon0.15_PT216H.grib2 2026-05-07 04:48 862K
20260507T00Z_MSC_GDPS_TotalTotalsIndex_Sfc_LatLon0.15_PT216H.grib2 2026-05-07 04:48 6.2M
20260507T00Z_MSC_GDPS_UVIndex-ClearSky_Sfc_LatLon0.15_PT216H.grib2 2026-05-07 04:56 1.0M
20260507T00Z_MSC_GDPS_UVIndex_Sfc_LatLon0.15_PT216H.grib2 2026-05-07 04:56 1.5M
20260507T00Z_MSC_GDPS_UpwardLongwaveRadiationFlux_NTAtm_LatLon0.15_PT216H.grib2 2026-05-07 04:48 842K
20260507T00Z_MSC_GDPS_VerticalVelocity_IsbL-0200_LatLon0.15_PT216H.grib2 2026-05-07 04:48 1.2M
20260507T00Z_MSC_GDPS_VerticalVelocity_IsbL-0250_LatLon0.15_PT216H.grib2 2026-05-07 04:48 1.0M
20260507T00Z_MSC_GDPS_VerticalVelocity_IsbL-0500_LatLon0.15_PT216H.grib2 2026-05-07 04:48 1.3M
20260507T00Z_MSC_GDPS_VerticalVelocity_IsbL-0600_LatLon0.15_PT216H.grib2 2026-05-07 04:48 1.3M
20260507T00Z_MSC_GDPS_VerticalVelocity_IsbL-0700_LatLon0.15_PT216H.grib2 2026-05-07 04:48 1.1M
20260507T00Z_MSC_GDPS_VerticalVelocity_IsbL-0850_LatLon0.15_PT216H.grib2 2026-05-07 04:48 1.6M
20260507T00Z_MSC_GDPS_WindChill_Sfc_LatLon0.15_PT216H.grib2 2026-05-07 04:48 5.3M
20260507T00Z_MSC_GDPS_WindDir_AGL-10m_LatLon0.15_PT216H.grib2 2026-05-07 04:48 1.3M
20260507T00Z_MSC_GDPS_WindDir_AGL-120m_LatLon0.15_PT216H.grib2 2026-05-07 04:48 1.3M
20260507T00Z_MSC_GDPS_WindDir_AGL-40m_LatLon0.15_PT216H.grib2 2026-05-07 04:48 1.4M
20260507T00Z_MSC_GDPS_WindDir_AGL-80m_LatLon0.15_PT216H.grib2 2026-05-07 04:48 1.4M
20260507T00Z_MSC_GDPS_WindDir_IsbL-0001_LatLon0.15_PT216H.grib2 2026-05-07 04:48 646K
20260507T00Z_MSC_GDPS_WindDir_IsbL-0005_LatLon0.15_PT216H.grib2 2026-05-07 04:48 790K
20260507T00Z_MSC_GDPS_WindDir_IsbL-0010_LatLon0.15_PT216H.grib2 2026-05-07 04:48 832K
20260507T00Z_MSC_GDPS_WindDir_IsbL-0020_LatLon0.15_PT216H.grib2 2026-05-07 04:48 920K
20260507T00Z_MSC_GDPS_WindDir_IsbL-0030_LatLon0.15_PT216H.grib2 2026-05-07 04:48 1.0M
20260507T00Z_MSC_GDPS_WindDir_IsbL-0050_LatLon0.15_PT216H.grib2 2026-05-07 04:48 961K
20260507T00Z_MSC_GDPS_WindDir_IsbL-0100_LatLon0.15_PT216H.grib2 2026-05-07 04:48 1.0M
20260507T00Z_MSC_GDPS_WindDir_IsbL-0150_LatLon0.15_PT216H.grib2 2026-05-07 04:48 1.0M
20260507T00Z_MSC_GDPS_WindDir_IsbL-0175_LatLon0.15_PT216H.grib2 2026-05-07 04:48 1.1M
20260507T00Z_MSC_GDPS_WindDir_IsbL-0200_LatLon0.15_PT216H.grib2 2026-05-07 04:48 1.1M
20260507T00Z_MSC_GDPS_WindDir_IsbL-0225_LatLon0.15_PT216H.grib2 2026-05-07 04:48 1.1M
20260507T00Z_MSC_GDPS_WindDir_IsbL-0250_LatLon0.15_PT216H.grib2 2026-05-07 04:48 1.1M
20260507T00Z_MSC_GDPS_WindDir_IsbL-0275_LatLon0.15_PT216H.grib2 2026-05-07 04:48 1.2M
20260507T00Z_MSC_GDPS_WindDir_IsbL-0300_LatLon0.15_PT216H.grib2 2026-05-07 04:48 1.2M
20260507T00Z_MSC_GDPS_WindDir_IsbL-0350_LatLon0.15_PT216H.grib2 2026-05-07 04:48 1.2M
20260507T00Z_MSC_GDPS_WindDir_IsbL-0400_LatLon0.15_PT216H.grib2 2026-05-07 04:48 1.3M
20260507T00Z_MSC_GDPS_WindDir_IsbL-0450_LatLon0.15_PT216H.grib2 2026-05-07 04:48 1.3M
20260507T00Z_MSC_GDPS_WindDir_IsbL-0500_LatLon0.15_PT216H.grib2 2026-05-07 04:48 1.3M
20260507T00Z_MSC_GDPS_WindDir_IsbL-0550_LatLon0.15_PT216H.grib2 2026-05-07 04:48 1.4M
20260507T00Z_MSC_GDPS_WindDir_IsbL-0600_LatLon0.15_PT216H.grib2 2026-05-07 04:48 1.5M
20260507T00Z_MSC_GDPS_WindDir_IsbL-0650_LatLon0.15_PT216H.grib2 2026-05-07 04:48 1.5M
20260507T00Z_MSC_GDPS_WindDir_IsbL-0700_LatLon0.15_PT216H.grib2 2026-05-07 04:48 1.6M
20260507T00Z_MSC_GDPS_WindDir_IsbL-0750_LatLon0.15_PT216H.grib2 2026-05-07 04:48 1.7M
20260507T00Z_MSC_GDPS_WindDir_IsbL-0800_LatLon0.15_PT216H.grib2 2026-05-07 04:48 1.8M
20260507T00Z_MSC_GDPS_WindDir_IsbL-0850_LatLon0.15_PT216H.grib2 2026-05-07 04:48 1.9M
20260507T00Z_MSC_GDPS_WindDir_IsbL-0875_LatLon0.15_PT216H.grib2 2026-05-07 04:48 2.0M
20260507T00Z_MSC_GDPS_WindDir_IsbL-0900_LatLon0.15_PT216H.grib2 2026-05-07 04:48 2.0M
20260507T00Z_MSC_GDPS_WindDir_IsbL-0925_LatLon0.15_PT216H.grib2 2026-05-07 04:48 2.0M
20260507T00Z_MSC_GDPS_WindDir_IsbL-0950_LatLon0.15_PT216H.grib2 2026-05-07 04:48 2.0M
20260507T00Z_MSC_GDPS_WindDir_IsbL-0970_LatLon0.15_PT216H.grib2 2026-05-07 04:48 2.0M
20260507T00Z_MSC_GDPS_WindDir_IsbL-0985_LatLon0.15_PT216H.grib2 2026-05-07 04:48 2.0M
20260507T00Z_MSC_GDPS_WindDir_IsbL-1000_LatLon0.15_PT216H.grib2 2026-05-07 04:48 2.1M
20260507T00Z_MSC_GDPS_WindDir_IsbL-1015_LatLon0.15_PT216H.grib2 2026-05-07 04:48 2.0M
20260507T00Z_MSC_GDPS_WindGust-Max_AGL-10m_LatLon0.15_PT216H.grib2 2026-05-07 04:48 2.2M
20260507T00Z_MSC_GDPS_WindGust-Min_AGL-10m_LatLon0.15_PT216H.grib2 2026-05-07 04:48 2.2M
20260507T00Z_MSC_GDPS_WindGust_AGL-10m_LatLon0.15_PT216H.grib2 2026-05-07 04:48 2.2M
20260507T00Z_MSC_GDPS_WindSpeed_AGL-10m_LatLon0.15_PT216H.grib2 2026-05-07 04:48 1.1M
20260507T00Z_MSC_GDPS_WindSpeed_AGL-120m_LatLon0.15_PT216H.grib2 2026-05-07 04:48 1.2M
20260507T00Z_MSC_GDPS_WindSpeed_AGL-40m_LatLon0.15_PT216H.grib2 2026-05-07 04:48 1.2M
20260507T00Z_MSC_GDPS_WindSpeed_AGL-80m_LatLon0.15_PT216H.grib2 2026-05-07 04:48 1.2M
20260507T00Z_MSC_GDPS_WindSpeed_IsbL-0001_LatLon0.15_PT216H.grib2 2026-05-07 04:48 508K
20260507T00Z_MSC_GDPS_WindSpeed_IsbL-0005_LatLon0.15_PT216H.grib2 2026-05-07 04:48 693K
20260507T00Z_MSC_GDPS_WindSpeed_IsbL-0010_LatLon0.15_PT216H.grib2 2026-05-07 04:48 704K
20260507T00Z_MSC_GDPS_WindSpeed_IsbL-0020_LatLon0.15_PT216H.grib2 2026-05-07 04:48 655K
20260507T00Z_MSC_GDPS_WindSpeed_IsbL-0030_LatLon0.15_PT216H.grib2 2026-05-07 04:48 667K
20260507T00Z_MSC_GDPS_WindSpeed_IsbL-0050_LatLon0.15_PT216H.grib2 2026-05-07 04:48 889K
20260507T00Z_MSC_GDPS_WindSpeed_IsbL-0100_LatLon0.15_PT216H.grib2 2026-05-07 04:48 1.1M
20260507T00Z_MSC_GDPS_WindSpeed_IsbL-0150_LatLon0.15_PT216H.grib2 2026-05-07 04:48 1.0M
20260507T00Z_MSC_GDPS_WindSpeed_IsbL-0175_LatLon0.15_PT216H.grib2 2026-05-07 04:48 1.0M
20260507T00Z_MSC_GDPS_WindSpeed_IsbL-0200_LatLon0.15_PT216H.grib2 2026-05-07 04:48 1.1M
20260507T00Z_MSC_GDPS_WindSpeed_IsbL-0225_LatLon0.15_PT216H.grib2 2026-05-07 04:48 1.1M
20260507T00Z_MSC_GDPS_WindSpeed_IsbL-0250_LatLon0.15_PT216H.grib2 2026-05-07 04:48 1.1M
20260507T00Z_MSC_GDPS_WindSpeed_IsbL-0275_LatLon0.15_PT216H.grib2 2026-05-07 04:48 1.1M
20260507T00Z_MSC_GDPS_WindSpeed_IsbL-0300_LatLon0.15_PT216H.grib2 2026-05-07 04:48 1.1M
20260507T00Z_MSC_GDPS_WindSpeed_IsbL-0350_LatLon0.15_PT216H.grib2 2026-05-07 04:48 1.1M
20260507T00Z_MSC_GDPS_WindSpeed_IsbL-0400_LatLon0.15_PT216H.grib2 2026-05-07 04:48 1.1M
20260507T00Z_MSC_GDPS_WindSpeed_IsbL-0450_LatLon0.15_PT216H.grib2 2026-05-07 04:48 1.1M
20260507T00Z_MSC_GDPS_WindSpeed_IsbL-0500_LatLon0.15_PT216H.grib2 2026-05-07 04:48 1.1M
20260507T00Z_MSC_GDPS_WindSpeed_IsbL-0550_LatLon0.15_PT216H.grib2 2026-05-07 04:48 1.1M
20260507T00Z_MSC_GDPS_WindSpeed_IsbL-0600_LatLon0.15_PT216H.grib2 2026-05-07 04:48 1.4M
20260507T00Z_MSC_GDPS_WindSpeed_IsbL-0650_LatLon0.15_PT216H.grib2 2026-05-07 04:48 1.4M
20260507T00Z_MSC_GDPS_WindSpeed_IsbL-0700_LatLon0.15_PT216H.grib2 2026-05-07 04:48 1.5M
20260507T00Z_MSC_GDPS_WindSpeed_IsbL-0750_LatLon0.15_PT216H.grib2 2026-05-07 04:48 1.6M
20260507T00Z_MSC_GDPS_WindSpeed_IsbL-0800_LatLon0.15_PT216H.grib2 2026-05-07 04:48 1.7M
20260507T00Z_MSC_GDPS_WindSpeed_IsbL-0850_LatLon0.15_PT216H.grib2 2026-05-07 04:48 1.8M
20260507T00Z_MSC_GDPS_WindSpeed_IsbL-0875_LatLon0.15_PT216H.grib2 2026-05-07 04:48 1.8M
20260507T00Z_MSC_GDPS_WindSpeed_IsbL-0900_LatLon0.15_PT216H.grib2 2026-05-07 04:48 1.8M
20260507T00Z_MSC_GDPS_WindSpeed_IsbL-0925_LatLon0.15_PT216H.grib2 2026-05-07 04:48 1.9M
20260507T00Z_MSC_GDPS_WindSpeed_IsbL-0950_LatLon0.15_PT216H.grib2 2026-05-07 04:48 1.9M
20260507T00Z_MSC_GDPS_WindSpeed_IsbL-0970_LatLon0.15_PT216H.grib2 2026-05-07 04:48 1.9M
20260507T00Z_MSC_GDPS_WindSpeed_IsbL-0985_LatLon0.15_PT216H.grib2 2026-05-07 04:48 1.9M
20260507T00Z_MSC_GDPS_WindSpeed_IsbL-1000_LatLon0.15_PT216H.grib2 2026-05-07 04:48 1.9M
20260507T00Z_MSC_GDPS_WindSpeed_IsbL-1015_LatLon0.15_PT216H.grib2 2026-05-07 04:48 1.8M
20260507T00Z_MSC_GDPS_WindU_AGL-10m_LatLon0.15_PT216H.grib2 2026-05-07 04:48 1.6M
20260507T00Z_MSC_GDPS_WindU_AGL-120m_LatLon0.15_PT216H.grib2 2026-05-07 04:48 1.0M
20260507T00Z_MSC_GDPS_WindU_AGL-40m_LatLon0.15_PT216H.grib2 2026-05-07 04:48 1.0M
20260507T00Z_MSC_GDPS_WindU_AGL-80m_LatLon0.15_PT216H.grib2 2026-05-07 04:48 1.0M
20260507T00Z_MSC_GDPS_WindU_IsbL-0001_LatLon0.15_PT216H.grib2 2026-05-07 04:48 600K
20260507T00Z_MSC_GDPS_WindU_IsbL-0005_LatLon0.15_PT216H.grib2 2026-05-07 04:48 688K
20260507T00Z_MSC_GDPS_WindU_IsbL-0010_LatLon0.15_PT216H.grib2 2026-05-07 04:48 697K
20260507T00Z_MSC_GDPS_WindU_IsbL-0020_LatLon0.15_PT216H.grib2 2026-05-07 04:48 721K
20260507T00Z_MSC_GDPS_WindU_IsbL-0030_LatLon0.15_PT216H.grib2 2026-05-07 04:48 731K
20260507T00Z_MSC_GDPS_WindU_IsbL-0050_LatLon0.15_PT216H.grib2 2026-05-07 04:48 756K
20260507T00Z_MSC_GDPS_WindU_IsbL-0100_LatLon0.15_PT216H.grib2 2026-05-07 04:48 920K
20260507T00Z_MSC_GDPS_WindU_IsbL-0150_LatLon0.15_PT216H.grib2 2026-05-07 04:48 1.0M
20260507T00Z_MSC_GDPS_WindU_IsbL-0175_LatLon0.15_PT216H.grib2 2026-05-07 04:48 1.0M
20260507T00Z_MSC_GDPS_WindU_IsbL-0200_LatLon0.15_PT216H.grib2 2026-05-07 04:48 846K
20260507T00Z_MSC_GDPS_WindU_IsbL-0225_LatLon0.15_PT216H.grib2 2026-05-07 04:48 858K
20260507T00Z_MSC_GDPS_WindU_IsbL-0250_LatLon0.15_PT216H.grib2 2026-05-07 04:48 859K
20260507T00Z_MSC_GDPS_WindU_IsbL-0275_LatLon0.15_PT216H.grib2 2026-05-07 04:48 883K
20260507T00Z_MSC_GDPS_WindU_IsbL-0300_LatLon0.15_PT216H.grib2 2026-05-07 04:48 876K
20260507T00Z_MSC_GDPS_WindU_IsbL-0350_LatLon0.15_PT216H.grib2 2026-05-07 04:48 891K
20260507T00Z_MSC_GDPS_WindU_IsbL-0400_LatLon0.15_PT216H.grib2 2026-05-07 04:48 893K
20260507T00Z_MSC_GDPS_WindU_IsbL-0450_LatLon0.15_PT216H.grib2 2026-05-07 04:48 1.1M
20260507T00Z_MSC_GDPS_WindU_IsbL-0500_LatLon0.15_PT216H.grib2 2026-05-07 04:48 1.1M
20260507T00Z_MSC_GDPS_WindU_IsbL-0550_LatLon0.15_PT216H.grib2 2026-05-07 04:48 1.1M
20260507T00Z_MSC_GDPS_WindU_IsbL-0600_LatLon0.15_PT216H.grib2 2026-05-07 04:48 1.2M
20260507T00Z_MSC_GDPS_WindU_IsbL-0650_LatLon0.15_PT216H.grib2 2026-05-07 04:48 1.2M
20260507T00Z_MSC_GDPS_WindU_IsbL-0700_LatLon0.15_PT216H.grib2 2026-05-07 04:48 1.2M
20260507T00Z_MSC_GDPS_WindU_IsbL-0750_LatLon0.15_PT216H.grib2 2026-05-07 04:48 1.3M
20260507T00Z_MSC_GDPS_WindU_IsbL-0800_LatLon0.15_PT216H.grib2 2026-05-07 04:48 1.4M
20260507T00Z_MSC_GDPS_WindU_IsbL-0850_LatLon0.15_PT216H.grib2 2026-05-07 04:48 1.4M
20260507T00Z_MSC_GDPS_WindU_IsbL-0875_LatLon0.15_PT216H.grib2 2026-05-07 04:48 1.5M
20260507T00Z_MSC_GDPS_WindU_IsbL-0900_LatLon0.15_PT216H.grib2 2026-05-07 04:48 1.5M
20260507T00Z_MSC_GDPS_WindU_IsbL-0925_LatLon0.15_PT216H.grib2 2026-05-07 04:48 1.5M
20260507T00Z_MSC_GDPS_WindU_IsbL-0950_LatLon0.15_PT216H.grib2 2026-05-07 04:48 1.5M
20260507T00Z_MSC_GDPS_WindU_IsbL-0970_LatLon0.15_PT216H.grib2 2026-05-07 04:48 1.4M
20260507T00Z_MSC_GDPS_WindU_IsbL-0985_LatLon0.15_PT216H.grib2 2026-05-07 04:48 1.4M
20260507T00Z_MSC_GDPS_WindU_IsbL-1000_LatLon0.15_PT216H.grib2 2026-05-07 04:48 1.4M
20260507T00Z_MSC_GDPS_WindU_IsbL-1015_LatLon0.15_PT216H.grib2 2026-05-07 04:48 1.4M
20260507T00Z_MSC_GDPS_WindV_AGL-10m_LatLon0.15_PT216H.grib2 2026-05-07 04:48 1.6M
20260507T00Z_MSC_GDPS_WindV_AGL-120m_LatLon0.15_PT216H.grib2 2026-05-07 04:48 1.0M
20260507T00Z_MSC_GDPS_WindV_AGL-40m_LatLon0.15_PT216H.grib2 2026-05-07 04:48 972K
20260507T00Z_MSC_GDPS_WindV_AGL-80m_LatLon0.15_PT216H.grib2 2026-05-07 04:48 1.0M
20260507T00Z_MSC_GDPS_WindV_IsbL-0001_LatLon0.15_PT216H.grib2 2026-05-07 04:48 796K
20260507T00Z_MSC_GDPS_WindV_IsbL-0005_LatLon0.15_PT216H.grib2 2026-05-07 04:48 865K
20260507T00Z_MSC_GDPS_WindV_IsbL-0010_LatLon0.15_PT216H.grib2 2026-05-07 04:48 795K
20260507T00Z_MSC_GDPS_WindV_IsbL-0020_LatLon0.15_PT216H.grib2 2026-05-07 04:48 925K
20260507T00Z_MSC_GDPS_WindV_IsbL-0030_LatLon0.15_PT216H.grib2 2026-05-07 04:48 849K
20260507T00Z_MSC_GDPS_WindV_IsbL-0050_LatLon0.15_PT216H.grib2 2026-05-07 04:48 894K
20260507T00Z_MSC_GDPS_WindV_IsbL-0100_LatLon0.15_PT216H.grib2 2026-05-07 04:48 1.1M
20260507T00Z_MSC_GDPS_WindV_IsbL-0150_LatLon0.15_PT216H.grib2 2026-05-07 04:48 930K
20260507T00Z_MSC_GDPS_WindV_IsbL-0175_LatLon0.15_PT216H.grib2 2026-05-07 04:48 1.0M
20260507T00Z_MSC_GDPS_WindV_IsbL-0200_LatLon0.15_PT216H.grib2 2026-05-07 04:48 1.1M
20260507T00Z_MSC_GDPS_WindV_IsbL-0225_LatLon0.15_PT216H.grib2 2026-05-07 04:48 856K
20260507T00Z_MSC_GDPS_WindV_IsbL-0250_LatLon0.15_PT216H.grib2 2026-05-07 04:48 853K
20260507T00Z_MSC_GDPS_WindV_IsbL-0275_LatLon0.15_PT216H.grib2 2026-05-07 04:48 876K
20260507T00Z_MSC_GDPS_WindV_IsbL-0300_LatLon0.15_PT216H.grib2 2026-05-07 04:48 864K
20260507T00Z_MSC_GDPS_WindV_IsbL-0350_LatLon0.15_PT216H.grib2 2026-05-07 04:48 878K
20260507T00Z_MSC_GDPS_WindV_IsbL-0400_LatLon0.15_PT216H.grib2 2026-05-07 04:48 1.1M
20260507T00Z_MSC_GDPS_WindV_IsbL-0450_LatLon0.15_PT216H.grib2 2026-05-07 04:48 1.1M
20260507T00Z_MSC_GDPS_WindV_IsbL-0500_LatLon0.15_PT216H.grib2 2026-05-07 04:48 1.1M
20260507T00Z_MSC_GDPS_WindV_IsbL-0550_LatLon0.15_PT216H.grib2 2026-05-07 04:48 1.1M
20260507T00Z_MSC_GDPS_WindV_IsbL-0600_LatLon0.15_PT216H.grib2 2026-05-07 04:48 1.1M
20260507T00Z_MSC_GDPS_WindV_IsbL-0650_LatLon0.15_PT216H.grib2 2026-05-07 04:48 1.2M
20260507T00Z_MSC_GDPS_WindV_IsbL-0700_LatLon0.15_PT216H.grib2 2026-05-07 04:48 1.2M
20260507T00Z_MSC_GDPS_WindV_IsbL-0750_LatLon0.15_PT216H.grib2 2026-05-07 04:48 1.3M
20260507T00Z_MSC_GDPS_WindV_IsbL-0800_LatLon0.15_PT216H.grib2 2026-05-07 04:48 1.3M
20260507T00Z_MSC_GDPS_WindV_IsbL-0850_LatLon0.15_PT216H.grib2 2026-05-07 04:48 1.4M
20260507T00Z_MSC_GDPS_WindV_IsbL-0875_LatLon0.15_PT216H.grib2 2026-05-07 04:48 1.5M
20260507T00Z_MSC_GDPS_WindV_IsbL-0900_LatLon0.15_PT216H.grib2 2026-05-07 04:48 1.5M
20260507T00Z_MSC_GDPS_WindV_IsbL-0925_LatLon0.15_PT216H.grib2 2026-05-07 04:48 1.5M
20260507T00Z_MSC_GDPS_WindV_IsbL-0950_LatLon0.15_PT216H.grib2 2026-05-07 04:48 1.4M
20260507T00Z_MSC_GDPS_WindV_IsbL-0970_LatLon0.15_PT216H.grib2 2026-05-07 04:48 1.4M
20260507T00Z_MSC_GDPS_WindV_IsbL-0985_LatLon0.15_PT216H.grib2 2026-05-07 04:48 1.4M
20260507T00Z_MSC_GDPS_WindV_IsbL-1000_LatLon0.15_PT216H.grib2 2026-05-07 04:48 1.7M
20260507T00Z_MSC_GDPS_WindV_IsbL-1015_LatLon0.15_PT216H.grib2 2026-05-07 04:48 1.6M